Location: Unspecified
(39.9267°N, 0.0000°E)
Time: 23:58:18
(UTC+00:00)

Tiangong 2 - Visible Passes

Search period start: 26 May 2019 00:00
Search period end: 05 June 2019 00:00
Orbit: 379 x 387 km, 42.8° (Epoch: 26 May)

Date Brightness Start Highest point End Pass type
(mag) Time Alt. Az. Time Alt. Az. Time Alt. Az.
26 May 2.0 19:46:31 10° WNW 19:49:33 47° N 19:52:36 10° ENE visible
26 May 1.1 21:23:19 10° WNW 21:26:28 75° NNE 21:26:28 75° NNE visible
27 May 1.6 20:23:16 10° WNW 20:26:23 56° N 20:29:00 13° E visible
27 May 3.4 22:00:04 10° W 22:01:10 19° W 22:01:10 19° W visible
28 May 0.9 20:59:56 10° WNW 21:03:04 73° SSW 21:03:43 51° SE visible
29 May 1.2 19:59:52 10° WNW 20:03:01 74° NNE 20:06:08 10° E visible
29 May 3.1 21:36:53 10° W 21:38:25 20° WSW 21:38:25 20° WSW visible
30 May 1.6 20:36:35 10° W 20:39:36 44° SSW 20:40:58 25° SSE visible
31 May 3.3 21:14:03 10° WSW 21:15:44 15° SW 21:15:44 15° SW visible
01 Jun 2.5 20:13:21 10° W 20:16:02 26° SSW 20:18:21 12° SSE visible
